CZ-6A DEB, 60842

Orbit data source: Space-Track

CZ-6A DEB, 60842 is space debris in LEO originally from a launch on Tue, 06 Aug 2024 UTC launched from the Taiyaun Space Center, China (TSC). Debris objects in space refer to the collection of defunct objects orbiting the Earth. Examples of debris include non-operational satellites, rocket bodies, and fragments generated from explosions, collisions, or faulty payload assembly.

Loading next visibility...
Identifier
60842, 2024-140HV
Orbit
LEO
Country
Flag of CNCN / PRC
Related business
Manufacturer
SAST
Mission
Spacecraft
Bus & Motor
Unknown
Mass
Unknown
Launch date (UTC)
2024-08-06 (1 year ago)
Launch vehicle
Unknown
Launch site
Taiyaun Space Center, China (TSC)
Object type
Payload
Rocket body
Debris
Shape & HBR
Unknown shape, 0.1 m
Radar Cross Section
Small (<0.1 m²)

Expand to show TLE details & history
Last TLE update: 14 hours ago

TLE from 14 hours ago
0 CZ-6A DEB
1 60842U 24140HV  25348.94427830  .00003706  00000-0  39692-3 0  9998
2 60842  88.8922 283.3371 0157383  92.7440 269.1808 14.79673754 72083
Epoch: 2025-12-14T22:39Z
TLE epoch observation values (Epoch: 2025-12-14T22:39:45.645Z)
Latitude
-0.00002°
Longitude
-140.45302°
Altitude
636.806 km
Speed
7.538 km/s
True Right ascension
18h 53m 20s
True Declination
0° 00' 00"
Sunlit
Object was in daylight at epoch
Visualization orbit readout
Latitude
Unknown
Longitude
Unknown
Altitude
Unknown
Speed
Unknown
Apparent Right ascension
Unknown
Apparent Declination
Unknown
Sunlit
N/A
Visualization observer readout
Local Sidereal Time
11:25:43
Azimuth
Unknown
Elevation
Unknown
Doppler factor
Unknown
Orbital elements
Apogee altitude
737.472 km
Perigee altitude
516.967 km
Semi-major axis
7,005.357 km
Eccentricity
0.01574
Inclination
88.8922°
RAAN
283.3371°
Arg. of periapsis
92.744°
True anomaly
267.37831°
Mean anomaly
269.1808°
Eccentric anomaly
268.27947°
Mean motion
3.70167 °/min
Orbital period
97.25 mins
BSTAR
0.00039692
Loading maneuver chart data...
Computing Atmospheric mass density...
Loading historical data...
Loading historical data...
Loading historical data...
Loading historical data...
Loading historical data...
Loading historical data...
Loading historical data...

Documentation

Showing up to 5 results
|